This demonstration page uses our WeatherBlox Daily Observations layout. Learn more.

Left ArrowRight Arrow

47.50024, -111.30081

Hourly Observations for June 28, 2020

Temp ( °F °C ) Dew Point ( °F °C ) Humidity (%) Winds ( mph kmh ) Pressure ( in mb ) Visibility ( mi km ) Precip ( " mm )
12:53 am 00:53 Cloudy 59 15 46 7.8 62 62 WNW 9 15 29.53 1000 10 16 0.00 0.00
1:50 am 01:50 Cloudy with Nearby Thunderstorms 61 16 45 7 55 55 WSW 14 22 29.51 999 10 16 0.00 0.00
1:53 am 01:53 Cloudy with Nearby Thunderstorms 60 15.6 44 6.7 56 56 W 10 17 29.54 1000 10 16 0.00 0.00
2:05 am 02:05 Cloudy with Light Rain 60 15.6 42 5.6 52 52 SW 7 11 29.52 1000 10 16 0.00 0.00
2:53 am 02:53 Partly Cloudy 57 13.9 46 7.8 67 67 WSW 7 11 29.55 1001 10 16 0.00 0.00
3:53 am 03:53 Cloudy with Light Rain 53 11.7 47 8.3 80 80 NNW 15 24 29.58 1002 10 16 0.00 0.00
4:53 am 04:53 Clear 49 9.4 44 6.7 83 83 NW 9 15 29.62 1003 10 16 0.00 0.00
5:53 am 05:53 Mostly Sunny 46 7.8 43 6.1 89 89 WSW 8 13 29.67 1005 10 16 0.00 0.00
6:53 am 06:53 Mostly Sunny 49 9.4 44 6.7 83 83 W 3 6 29.69 1005 10 16 0.00 0.00
7:11 am 07:11 Mostly Cloudy 50 10 44 6.7 80 80 NW 6 9 29.70 1006 10 16 0.00 0.00
7:53 am 07:53 Cloudy 50 10 43 6.1 77 77 NNW 3 6 29.68 1005 10 16 0.00 0.00
8:53 am 08:53 Cloudy 53 11.7 44 6.7 72 72 NNE 5 7 29.67 1005 10 16 0.00 0.00
9:53 am 09:53 Cloudy 54 12.2 45 7.2 72 72 Calm 29.67 1005 10 16 0.00 0.00
10:53 am 10:53 Cloudy 54 12.2 45 7.2 72 72 S 5 7 29.68 1005 10 16 0.00 0.00
11:18 am 11:18 Cloudy 55 12.8 46 7.8 72 72 SSW 6 9 29.64 1004 10 16 0.00 0.00
11:53 am 11:53 Mostly Sunny 58 14.4 46 7.8 65 65 Calm 29.67 1005 10 16 0.00 0.00
12:32 pm 12:32 Mostly Cloudy 58 14.4 45 7.2 62 62 Calm 29.61 1003 10 16 0.00 0.00
12:53 pm 12:53 Mostly Cloudy 58 14.4 45 7.2 62 62 Calm 29.65 1004 10 16 0.00 0.00
1:53 pm 13:53 Sunny 59 15 46 7.8 62 62 NNE 7 11 29.63 1003 10 16 0.00 0.00
2:53 pm 14:53 Partly Cloudy 59 15 46 7.8 62 62 E 7 11 29.64 1004 10 16 0.00 0.00
3:53 pm 15:53 Mostly Cloudy 60 15.6 45 7.2 58 58 Calm 29.65 1004 10 16 0.00 0.00
4:53 pm 16:53 Mostly Cloudy 61 16.1 45 7.2 56 56 NE 3 6 29.65 1004 10 16 0.00 0.00
5:53 pm 17:53 Cloudy 58 14.4 46 7.8 65 65 ENE 5 7 29.67 1005 10 16 0.04 1.02
6:36 pm 18:36 Cloudy with Heavy Rain 51 10.6 46 7.8 83 83 SE 20 31 29.65 1004 2 3 0.04 1.02
7:00 pm 19:00 Partly Cloudy with Light Rain 50 10 46 7.8 86 86 SE 13 20 29.69 1005 2 3 0.15 3.81
7:22 pm 19:22 Cloudy with Rain 50 10 46 7.8 86 86 ESE 7 11 29.70 1006 3 4 0.21 5.33
7:35 pm 19:35 Cloudy with Light Rain 50 10 46 7.8 86 86 E 6 9 29.70 1006 6 10 0.24 6.10
7:53 pm 19:53 Cloudy with Rain 50 10 46 7.8 86 86 E 5 7 29.73 1007 5 8 0.27 6.86
8:53 pm 20:53 Cloudy with Rain 49 9.4 46 7.8 90 90 N 8 13 29.73 1007 3 4 0.17 4.32
9:17 pm 21:17 Cloudy with Rain 49 9.4 47 8.3 93 93 N 8 13 29.71 1006 3 5 0.09 2.29
9:39 pm 21:39 Cloudy with Light Rain 50 10 48 8.9 93 93 NNE 6 9 29.70 1006 6 10 0.13 3.30
9:53 pm 21:53 Cloudy with Light Rain 50 10 48 8.9 93 93 N 5 7 29.73 1007 10 16 0.14 3.56
10:08 pm 22:08 Cloudy with Light Rain 50 10 48 8.9 93 93 N 5 7 29.70 1006 10 16 0.00 0.00
10:53 pm 22:53 Cloudy with Light Rain 50 10 48 8.9 93 93 NW 3 6 29.74 1007 7 11 0.01 0.25
11:53 pm 23:53 Cloudy with Light Rain 50 10 47 8.3 89 89 NNE 5 7 29.73 1007 10 16 0.04 1.02

Powered by AerisWeather